Change the Weather History Date:

Sunday, October 28, 2012

  Actual Average Record
Temperature  
Mean Temperature 52 °F -  
Max Temperature 55 °F 51 °F 61 °F (2014)
Min Temperature 50 °F 38 °F 35 °F (2004)
Degree Days  
Heating Degree Days 13    
Growing Degree Days 2 (Base 50)    
Moisture  
Dew Point 48 °F    
Average Humidity 87    
Maximum Humidity 94    
Minimum Humidity 77    
Precipitation  
Precipitation 0.06 in - - ()
Sea Level Pressure  
Sea Level Pressure 29.89 in    
Wind  
Wind Speed 4 mph (South)    
Max Wind Speed 9 mph    
Max Gust Speed -    
Visibility 9 miles    
Events Rain    
Averages and records for this station are not official NWS values.
T = Trace of Precipitation, MM = Missing Value Source: NWS Daily Summary

Daily Weather History Graph

Daily Weather History Graph

Search for Another Location

Airport or City:

Trip Planner

Search our weather history database for the weather conditions in past years. The results will help you decide how hot, cold, wet, or windy it might be!

Date:

Astronomy

Oct. 28, 2012 Rise Set
Actual Time 7:51 AM PDT 5:56 PM PDT
Civil Twilight 7:18 AM PDT 6:29 PM PDT
Nautical Twilight 6:41 AM PDT 7:06 PM PDT
Astronomical Twilight 6:05 AM PDT 7:42 PM PDT
Moon 5:17 PM PDT (10/28) 6:47 AM PDT (10/28)
Length of Visible Light 11h 10m
Length of Day
10h 05m
Waxing Gibbous, 99% of the Moon is Illuminated
Oct 28
Waxing Gibbous
Oct 29
Full
Nov 6
Last Quarter
Nov 13
New
Nov 20
First Quarter

Hourly Weather History & Observations

Time (PDT) Temp. Dew Point Humidity Pressure Visibility Wind Dir Wind Speed Gust Speed Precip Events Conditions
12:19 AM 53.6 °F 51.8 °F 94% 29.80 in 10.0 mi SSE 9.2 mph - N/A   Overcast
12:56 AM 54.0 °F 51.1 °F 90% 29.83 in 10.0 mi SE 3.5 mph - N/A   Overcast
1:35 AM 53.6 °F 51.8 °F 94% 29.83 in 10.0 mi SSW 3.5 mph - N/A   Overcast
1:56 AM 54.0 °F 51.1 °F 90% 29.86 in 10.0 mi SW 3.5 mph - N/A   Overcast
2:56 AM 54.0 °F 50.0 °F 86% 29.88 in 10.0 mi SW 4.6 mph - N/A   Overcast
3:56 AM 51.1 °F 48.0 °F 89% 29.90 in 10.0 mi SSW 5.8 mph - N/A   Overcast
4:06 AM 51.8 °F 48.2 °F 88% 29.89 in 10.0 mi SW 6.9 mph - N/A   Overcast
4:56 AM 52.0 °F 48.0 °F 86% 29.91 in 10.0 mi Calm Calm - N/A   Overcast
5:56 AM 52.0 °F 48.0 °F 86% 29.93 in 10.0 mi SSW 6.9 mph - N/A   Overcast
6:56 AM 52.0 °F 48.0 °F 86% 29.93 in 10.0 mi SSW 6.9 mph - N/A   Overcast
7:56 AM 51.1 °F 48.0 °F 89% 29.93 in 10.0 mi SW 9.2 mph - N/A   Overcast
8:56 AM 52.0 °F 48.0 °F 86% 29.95 in 10.0 mi Calm Calm - N/A   Overcast
9:09 AM 51.8 °F 48.2 °F 88% 29.94 in 10.0 mi Calm Calm - N/A   Overcast
9:42 AM 51.8 °F 48.2 °F 88% 29.94 in 10.0 mi SSE 3.5 mph - 0.00 in Rain Light Rain
9:56 AM 52.0 °F 48.9 °F 89% 29.96 in 10.0 mi Calm Calm - 0.00 in   Overcast
10:56 AM 53.1 °F 50.0 °F 89% 29.95 in 10.0 mi South 3.5 mph - N/A   Overcast
11:56 AM 54.0 °F 48.9 °F 83% 29.96 in 10.0 mi SW 4.6 mph - N/A   Overcast
12:56 PM 54.0 °F 48.0 °F 80% 29.95 in 10.0 mi West 5.8 mph - N/A   Mostly Cloudy
1:56 PM 53.1 °F 46.9 °F 80% 29.94 in 10.0 mi Calm Calm - N/A   Mostly Cloudy
2:56 PM 54.0 °F 48.0 °F 80% 29.94 in 10.0 mi WSW 3.5 mph - N/A   Mostly Cloudy
3:12 PM 53.6 °F 46.4 °F 77% 29.92 in 10.0 mi Calm Calm - N/A   Overcast
3:56 PM 52.0 °F 46.9 °F 83% 29.92 in 10.0 mi West 3.5 mph - N/A   Mostly Cloudy
4:56 PM 52.0 °F 46.9 °F 83% 29.91 in 10.0 mi Calm Calm - N/A   Overcast
5:56 PM 50.0 °F 46.0 °F 86% 29.88 in 10.0 mi Calm Calm - N/A   Overcast
6:56 PM 50.0 °F 46.0 °F 86% 29.88 in 10.0 mi Calm Calm - N/A   Overcast
7:56 PM 50.0 °F 46.9 °F 89% 29.86 in 10.0 mi SE 3.5 mph - N/A   Overcast
8:38 PM 51.8 °F 46.4 °F 82% 29.84 in 8.0 mi Calm Calm - 0.00 in Rain Light Rain
8:56 PM 51.1 °F 46.9 °F 86% 29.84 in 8.0 mi East 3.5 mph - 0.01 in Rain Light Rain
9:11 PM 50.0 °F 48.2 °F 94% 29.82 in 8.0 mi ESE 3.5 mph - 0.01 in Rain Light Rain
9:56 PM 50.0 °F 48.0 °F 93% 29.81 in 10.0 mi East 4.6 mph - 0.02 in Rain Light Rain
10:56 PM 51.1 °F 48.0 °F 89% 29.79 in 8.0 mi East 8.1 mph - 0.01 in Rain Light Rain
11:26 PM 51.8 °F 48.2 °F 88% 29.78 in 5.0 mi East 3.5 mph - 0.01 in Rain Light Rain
11:56 PM 51.1 °F 48.9 °F 92% 29.77 in 4.0 mi ENE 3.5 mph - 0.02 in Rain Light Rain